User: anonymous   Login
Location: Most
(50.5330°N, 13.6500°E)
Time: 06:25:36
(UTC+01:00)
Language:

N. Korean satellite - Orbit

View from above orbital plane
View from above orbital plane
View from above satellite
View from above satellite

Ground track
Ground track

The orbit data is extracted from the following two-line orbital elements,

1 39026U 12072A   21338.89901333  .00003903  00000-0  12799-3 0  9991
2 39026  97.2566 327.8755 0035653 133.7513 226.6690 15.31595962499109
Epoch (UTC): 04 December 2021 21:34:34
Eccentricity: 0.0035653
inclination: 97.2566°
perigee height: 446 km
apogee height: 495 km
right ascension of ascending node: 327.8755°
argument of perigee: 133.7513°
revolutions per day: 15.31595962
mean anomaly at epoch: 226.6690°
orbit number at epoch: 49910

The dashed part of the orbit path shows where the satellite is in the earth's shadow,  

DLR